,

(GMT )
White Rock

Weather History for CWWK - February, 2013

Change the Weather History Date:

Tuesday, February 26, 2013

  Actual Average Record
Temperature  
Mean Temperature 42 °F -  
Max Temperature 46 °F - - ()
Min Temperature 38 °F - - ()
Degree Days  
Heating Degree Days 23    
Moisture  
Dew Point 35 °F    
Average Humidity 75    
Maximum Humidity 87    
Minimum Humidity 52    
Precipitation  
Precipitation 0.02 in - - ()
Sea Level Pressure  
Sea Level Pressure 30.28 in    
Wind  
Wind Speed 3 mph ()    
Max Wind Speed 9 mph    
Max Gust Speed -    
T = Trace of Precipitation, MM = Missing Value Source: Averaged Metar Reports

Daily Weather History Graph

Daily Weather History Graph

Search for Another Location

Airport or City:

Trip Planner

Search our weather history database for the weather conditions in past years. The results will help you decide how hot, cold, wet, or windy it might be!

Date:

Astronomy

Feb. 26, 2013 Rise Set
Actual Time 6:58 AM PST 5:50 PM PST
Civil Twilight 6:26 AM PST 6:22 PM PST
Nautical Twilight 5:49 AM PST 6:58 PM PST
Astronomical Twilight 5:13 AM PST 7:35 PM PST
Moon 7:25 PM PST (2/26) 6:54 AM PST (2/26)
Length of Visible Light 11h 55m
Length of Day
10h 51m
Full, 99% of the Moon is Illuminated
Feb 26
Full
Mar 4
Last Quarter
Mar 11
New
Mar 19
First Quarter
Mar 27
Full

Hourly Weather History & Observations

Time (PST) Temp. Windchill Dew Point Humidity Pressure Visibility Wind Dir Wind Speed Gust Speed Precip Events Conditions
12:00 AM 40.8 °F - 33.6 °F 76% 30.28 in - NNE 1.2 mph - N/A   Unknown
1:00 AM 40.5 °F - 34.7 °F 80% 30.29 in - SSE 1.2 mph - N/A   Unknown
2:00 AM 40.1 °F - 35.4 °F 83% 30.30 in - ESE 2.3 mph - N/A   Unknown
3:00 AM 39.7 °F - 35.2 °F 84% 30.31 in - Calm Calm - N/A   Unknown
4:00 AM 39 °F - 35 °F 80% 30.32 in - East 1.2 mph - -  
4:00 AM 38.7 °F - 34.9 °F 86% 30.32 in - East 1.2 mph - N/A   Unknown
5:00 AM 39.4 °F 37.2 °F 35.4 °F 86% 30.33 in - ESE 3.5 mph - N/A   Unknown
6:00 AM 39.9 °F - 36.3 °F 87% 30.33 in - ESE 2.3 mph - N/A   Unknown
7:00 AM 41.0 °F 39.0 °F 36.5 °F 84% 30.34 in - SE 3.5 mph - N/A   Unknown
8:00 AM 41.2 °F 37.3 °F 36.1 °F 82% 30.35 in - SSE 5.8 mph - N/A   Unknown
9:00 AM 42.1 °F 37.7 °F 35.2 °F 77% 30.35 in - South 6.9 mph - N/A   Unknown
10:00 AM 44 °F - 35 °F 60% 30.34 in - SSE 5.8 mph - -  
10:00 AM 43.7 °F 40.3 °F 34.7 °F 71% 30.34 in - SSE 5.8 mph - N/A   Unknown
11:00 AM 44.6 °F 39.7 °F 34.3 °F 67% 30.32 in - SSE 9.2 mph - N/A   Unknown
12:00 PM 44.6 °F 41.4 °F 34.3 °F 67% 30.32 in - SSE 5.8 mph - N/A   Unknown
1:00 PM 45.9 °F 43.6 °F 34.5 °F 65% 30.30 in - SE 4.6 mph - N/A   Unknown
2:00 PM 45.9 °F 43.6 °F 32.9 °F 61% 30.28 in - SSE 4.6 mph - N/A   Unknown
3:00 PM 46.0 °F 44.8 °F 31.8 °F 58% 30.27 in - SSE 3.5 mph - N/A   Unknown
4:00 PM 45 °F - 33 °F 52% 30.25 in - SE 3.5 mph - -  
4:00 PM 45.3 °F 44.0 °F 33.1 °F 62% 30.25 in - SE 3.5 mph - N/A   Unknown
5:00 PM 44.6 °F 42.2 °F 33.6 °F 65% 30.22 in - East 4.6 mph - N/A   Unknown
6:00 PM 43.3 °F 39.2 °F 34.9 °F 72% 30.22 in - ESE 6.9 mph - 0.01 in   Unknown
7:00 PM 42.1 °F 40.2 °F 36.0 °F 79% 30.22 in - East 3.5 mph - 0.02 in   Unknown
8:00 PM 41.0 °F 37.1 °F 36.1 °F 83% 30.20 in - NE 5.8 mph - N/A   Unknown
9:00 PM 41.0 °F 36.4 °F 36.1 °F 83% 30.19 in - ENE 6.9 mph - N/A   Unknown
10:00 PM 41 °F - 36 °F 76% 30.19 in - ENE 4.6 mph - -  
10:00 PM 40.8 °F 37.8 °F 36.0 °F 83% 30.19 in - ENE 4.6 mph - N/A   Unknown
11:00 PM 41.0 °F 39.0 °F 36.5 °F 84% 30.19 in - East 3.5 mph - 0.02 in   Unknown